Regional Weather Roundup
Issued by NWS

Home | Current Version | Previous Version | Graphics & Text | Print | Product List | Glossary On
Versions: 1 2 3 4 5 6 7 8 9 10 11 12 13 14 15 16 17 18 19 20 21 22 23 24 25 26 27 28 29 30 31 32 33 34 35 36 37 38 39 40 41 42 43 44 45 46 47 48 49 50
000
ASUS43 KLOT 230712
RWRIL

ILLINOIS REGIONAL WEATHER ROUNDUP
NATIONAL WEATHER SERVICE CHICAGO/ROMEOVILLE IL
100 AM CST MON JAN 23 2017

NOTE: "FAIR" INDICATES FEW OR NO CLOUDS BELOW 12,000 FEET WITH NO
SIGNIFICANT WEATHER AND/OR OBSTRUCTIONS TO VISIBILITY.

* THESE STATIONS ARE NOT UNDER NWS QUALITY CONTROL. THEY ALSO MAY NOT
  REPORT WEATHER SUCH AS PRECIPITATION OR FOG.

ILZ001-002-007-009-015-016-024-230800-
NORTHWEST ILLINOIS

CITY           SKY/WX    TMP DP  RH WIND       PRES   REMARKS
MOLINE         CLOUDY    38  34  85 N5        29.77S WCI  34
STERLING*      CLOUDY    37  36  96 NW7       29.76S WCI  32
SAVANNA*       CLOUDY    37  35  95 CALM      29.77R FOG
$$

ILZ003-004-008-010-011-017-018-230800-
NORTH CENTRAL ILLINOIS

CITY           SKY/WX    TMP DP  RH WIND       PRES   REMARKS
ROCKFORD       DRIZZLE   38  35  89 N5        29.75F WCI  34
FREEPORT*      CLOUDY    36  35  95 NW5       29.76S WCI  32
ROCHELLE*      CLOUDY    36  35  96 N12       29.73F FOG     WCI  28
DE KALB*       CLOUDY    37  36  96 NW9       29.72S FOG     WCI  30
PERU*          CLOUDY    37  35  92 NW12      29.74S WCI  29
$$

ILZ005-006-012>014-019>023-230800-
NORTHEAST ILLINOIS

CITY           SKY/WX    TMP DP  RH WIND       PRES   REMARKS
CHICAGO-OHARE  CLOUDY    38  37  97 N9        29.69S FOG     WCI  31
CHICAGO-MIDWAY CLOUDY    39  35  86 N9        29.69S WCI  33
AURORA         CLOUDY    38  35  89 N12       29.71F WCI  30
LANSING*       CLOUDY    38  38 100 N8        29.68S WCI  32
JOLIET*        CLOUDY    41  38  91 NW7       29.70S FOG
WAUKEGAN       CLOUDY    37  36  96 N3        29.70F FOG
DUPAGE AIRPORT CLOUDY    38  35  89 N8        29.70S WCI  32
KANKAKEE*      CLOUDY    40  37  89 NW10      29.67F
WHEELING       CLOUDY    37  36  96 N7        29.72S FOG     WCI  32
MORRIS*        CLOUDY    38  36  91 NW7       29.69F WCI  33
ROMEOVILLE*    CLOUDY    39  38  97 N9        29.70S WCI  33
NORTHERLY ISL    N/A     37  36  96 N12         N/A  WCI  29
$$

LMZ740>746-230800-
SOUTHERN LAKE MICHIGAN

STATION/POSITION SKY/WX   TEMP    WIND        PRES    VSBY  WAVE
                          AIR SEA DIR/SP/G                  HT/PER
                          (F)     (DEG/KT/KT) (MB)    (MI)  (FT/S)
HARRISON CRIB              36     340/ 15/ 16   N/A
BURNHAM HARBOR             37     350/ 11/ 15   N/A
CALUMET HARBOR             36     320/ 10/ 16 1005.0R
BURNS HARBOR               36     360/ 12/ 14 1005.4F
MICHIGAN CITY              37     340/ 15/ 16   N/A
$$

ILZ025>027-034>036-040-047-049-050-058-095>099-230800-
WEST-CENTRAL ILLINOIS

CITY           SKY/WX    TMP DP  RH WIND       PRES   REMARKS
QUINCY         CLOUDY    38  36  92 NW14      29.77F WCI  30
GALESBURG*     CLOUDY    36  36 100 NW8       29.77S FOG     WCI  30
MACOMB*        CLOUDY    37  36  98 N10       29.79S FOG     WCI  29
JACKSONVILLE*  DRIZZLE   37  35  92 NW13      29.75S WCI  29
PITTSFIELD*    CLOUDY    38  36  94 NW10      29.78S WCI  31
$$

ILZ028>032-037-038-041>044-048-051>054-059>061-230800-
CENTRAL ILLINOIS

CITY           SKY/WX    TMP DP  RH WIND       PRES   REMARKS
PONTIAC        CLOUDY    40  40 100 NW12      29.70F
BLOOMINGTON    LGT RAIN  37  37 100 N13       29.70S FOG     WCI  29
DECATUR        CLOUDY    40  39  97 NW16G25   29.67F
PEORIA         CLOUDY    38  36  92 N9        29.74S WCI  31
LACON*         CLOUDY    37  36  95 N6        29.73S WCI  33
LINCOLN*       CLOUDY    40  38  92 N7        29.72S
SPRINGFIELD    CLOUDY    40  37  89 NW14      29.73S FOG
TAYLORVILLE    CLOUDY    38  37  92 NW20      29.69F FOG     WCI  29
$$

ILZ033-039-045-046-055>057-062-063-230800-
EAST-CENTRAL ILLINOIS

CITY           SKY/WX    TMP DP  RH WIND       PRES   REMARKS
CHAMPAIGN      CLOUDY    40  37  89 NW17      29.63R FOG
RANTOUL*       CLOUDY    40  40  97 N16       29.63S FOG
MATTOON        CLOUDY    41  39  93 NW18      29.62R FOG
PARIS*         CLOUDY    42  41  97 N12G18    29.60S FOG
$$

ILZ079-100>102-230800-
SOUTHWEST ILLINOIS

CITY           SKY/WX    TMP DP  RH WIND       PRES   REMARKS
ALTON          CLOUDY    38  35  88 NW12      29.73S WCI  30
BELLEVILLE     CLOUDY    40  38  95 NW20G26   29.68S
CAHOKIA*       CLOUDY    40  34  79 NW20      29.72F
SPARTA*        CLOUDY    41  36  82 NW14G22   29.69R
$$

ILZ064>066-069>071-074>076-080>082-084>086-088>090-092>094-230800-
SOUTH-CENTRAL ILLINOIS

CITY           SKY/WX    TMP DP  RH WIND       PRES   REMARKS
CARBONDALE     PTCLDY    42  38  85 NW18G24   29.63R
CAIRO*         PTCLDY    44  38  78 NW20G30   29.59R
EFFINGHAM*     CLOUDY    42  41  97 NW15      29.63S FOG
MARION         CLOUDY    45  39  81 NW13G21   29.64R
MT. VERNON     CLOUDY    42  38  85 VRB7      29.62R
CENTRALIA*     CLOUDY    42  39  89 NW21G26   29.63S
SALEM*         CLOUDY    42  38  84 NW20      29.63S
METROPOLIS*    CLOUDY    46  40  81 NW17G25   29.57R
$$

ILZ067-068-072-073-078-083-087-091-230800-
SOUTHEAST ILLINOIS

CITY           SKY/WX    TMP DP  RH WIND       PRES   REMARKS
LAWRENCEVILLE  CLOUDY    47  45  93 N20G28    29.55R FOG
FLORA*         CLOUDY    45  41  88 N20       29.62R FOG
FAIRFIELD*     CLOUDY    45  42  90 NW9       29.58R FOG
HARRISBURG*    CLOUDY    45  41  86 NW15G25   29.58R
ROBINSON*      CLOUDY    44  43  95 N14G22    29.57R FOG
CARMI*         CLOUDY    46  44  90 NW23      29.55R FOG
$$

ABBREVIATIONS USED IN REMARKS
   TC - TEMPERATURE IN CELSIUS
  WCI - WIND CHILL INDEX
   HX - HEAT INDEX
  VSB - VISIBILITY
$$





USA.gov is the U.S. government's official web portal to all federal, state and local government web resources and services.